Regional Weather Roundup
Issued by NWS

Home | Current Version | Previous Version | Text Only | Print | Product List | Glossary Off
Versions: 1 2 3 4 5 6 7 8 9 10 11 12 13 14 15 16 17 18 19 20 21 22 23 24 25 26 27 28 29 30 31 32 33 34 35 36 37 38 39 40 41 42 43 44 45 46 47 48 49 50

000
ASUS43 KOAX 241702
RWRNE

WEATHER ROUNDUP FOR NEBRASKA
NATIONAL WEATHER SERVICE OMAHA NE
1100 AM CST FRI FEB 24 2017

NOTES: SATELLITE DATA IS BEING USED TO AUGMENT CLOUD COVER ABOVE
       12000 FEET.
       "FAIR" INDICATES FEW OR NO CLOUDS BELOW 12,000 FEET WITH NO
       SIGNIFICANT WEATHER AND/OR OBSTRUCTIONS TO VISIBILITY.

  * THESE STATIONS DO NOT REPORT WEATHER SUCH AS RAIN...SNOW OR FOG.

NEZ001>004-019>022-054>056-241800-
NEBRASKA PANHANDLE

CITY           SKY/WX    TMP DP  RH WIND       PRES   REMARKS
SCOTTSBLUFF    LGT SNOW  23  16  74 E7        30.02R WCI  15
ALLIANCE       CLOUDY    20  15  81 N13       30.00R HAZE    WCI   7
CHADRON        CLOUDY    20  14  77 N9        30.08R WCI   9
KIMBALL        CLOUDY    20  17  89 NE8       29.97R FOG     WCI  10
SIDNEY         LGT SNOW  20  16  84 N12       29.99R FOG     WCI   8
$$

NEZ057>060-069>072-079>082-241800-
SOUTHWEST NEBRASKA

CITY           SKY/WX    TMP DP  RH WIND       PRES   REMARKS
NORTH PLATTE   CLOUDY    23  15  71 N21G28    30.01R WCI   8
IMPERIAL       CLOUDY    24  19  81 N17       30.00R HAZE    WCI  11
LEXINGTON      CLOUDY    22  16  76 N25G40    29.97R HAZE    WCI   5
MCCOOK         CLOUDY    27  21  78 N24       29.99R WCI  12
OGALLALA       CLOUDY    26  19  72 N18       30.01R WCI  13
$$

NEZ005>010-023>029-035>040-094-241800-
NORTH CENTRAL NEBRASKA

CITY           SKY/WX    TMP DP  RH WIND       PRES   REMARKS
VALENTINE      MOSUNNY   19  11  70 N13       30.06R WCI   6
AINSWORTH      PTSUNNY   19  15  83 N22       30.03S WCI   2
BROKEN BOW     CLOUDY    20  14  77 N25G36    29.97R HAZE    WCI   2
O`NEILL        CLOUDY    21  15  78 N23       29.99R WCI   4
ORD            CLOUDY    21  13  71 N24G35    29.96R BLWGSNOWWCI   4
THEDFORD       CLOUDY    20  13  75 N18G28    30.03R WCI   4
$$

NEZ041-046>049-061>064-073>077-083>087-241800-
SOUTH CENTRAL NEBRASKA

CITY           SKY/WX    TMP DP  RH WIND       PRES   REMARKS
GRAND ISLAND   CLOUDY    21  19  92 N24G33    29.93R FOG     WCI   4
AURORA         LGT SNOW  22  20  92 N18G28    29.91R VSB 3/4 WCI   8
HASTINGS       FOG       22  18  85 N31G40    29.93R VSB 1/2 WCI   4
HEBRON         LGT SNOW  24  21  88 N14G24    29.89R WCI  12
HOLDREGE         N/A     21  18  88 N21G29    29.94R WCI   6
KEARNEY *      CLOUDY    21  16  79 N15       29.95R VSB 3/4 WCI   8
YORK           HVY SNOW  23  21  93 N16G24    29.87R WCI  10
$$

NEZ011>018-030>034-042>045-241800-
NORTHEAST NEBRASKA

CITY           SKY/WX    TMP DP  RH WIND       PRES   REMARKS
NORFOLK        CLOUDY    21  15  78 N14G24    29.91R WCI   8
ALBION         CLOUDY    22  14  71 N21G32    29.92R HAZE    WCI   7
BLAIR          LGT SNOW  25  22  90 N18       29.79R VSB 3/4 WCI  11
FREMONT        CLOUDY    26  23  89 N14G25    29.84S FOG     WCI  14
TEKAMAH        FOG       24  21  88 N32G39    29.84R VSB 1/2 WCI   6
WAYNE          CLOUDY    22  18  83 N25       29.90R WCI   5
$$

NEZ050>053-065>068-078-088>093-241800-
SOUTHEAST NEBRASKA

CITY           SKY/WX    TMP DP  RH WIND       PRES   REMARKS
LINCOLN        SNOW      26  23  88 N18G30    29.84R VSB 1/2 WCI  13
OMAHA EPPLEY   LGT SNOW  26  21  81 N24       29.80R VSB 3/4 WCI  11
BEATRICE       LGT SNOW  28  26  93 N26       29.84R WCI  13
FALLS CITY     FRZ RAIN  31  28  89 N17G30    29.75R WCI  19
NEBRASKA CITY  LGT SNOW  27  24  86 N15G25    29.78R WCI  16
PLATTSMOUTH    LGT SNOW  27  22  81 N12G18    29.79R WCI  17
$$

NEZ044-045-051>053-067-241800-
OMAHA AREA

CITY           SKY/WX    TMP DP  RH WIND       PRES   REMARKS
OMAHA EPPLEY   LGT SNOW  26  21  81 N24       29.80R VSB 3/4 WCI  11
BLAIR          LGT SNOW  25  22  90 N18       29.79R VSB 3/4 WCI  11
FREMONT        CLOUDY    26  23  89 N14G25    29.84S FOG     WCI  14
MILLARD        LGT SNOW  28  24  84 N14G25    29.82R WCI  17
OFFUTT AFB     LGT SNOW  27  23  84 N13       29.80R WCI  16
PLATTSMOUTH    LGT SNOW  27  22  81 N12G18    29.79R WCI  17
WAHOO          CLOUDY    26  22  87 N28G33    29.83R WCI  10
$$



USA.gov is the U.S. government's official web portal to all federal, state and local government web resources and services.